TimeCST,TemperatureF,Dew PointF,Humidity,Sea Level PressureIn,VisibilityMPH,Wind Direction,Wind SpeedMPH,Gust SpeedMPH,PrecipitationIn,Events,Conditions,WindDirDegrees,DateUTC
12:15 AM,39.2,23.0,52,30.13,10.0,SE,4.6,-,N/A,,Clear,140,2012-11-16 06:15:00
12:35 AM,37.4,23.0,56,30.13,10.0,SSE,4.6,-,N/A,,Clear,160,2012-11-16 06:35:00
12:55 AM,37.4,23.0,56,30.12,10.0,North,5.8,-,N/A,,Clear,360,2012-11-16 06:55:00
1:15 AM,39.2,24.8,56,30.11,10.0,West,3.5,-,N/A,,Clear,280,2012-11-16 07:15:00
1:55 AM,37.4,23.0,56,30.09,10.0,North,3.5,-,N/A,,Clear,360,2012-11-16 07:55:00
2:15 AM,37.4,23.0,56,30.08,10.0,North,6.9,-,N/A,,Clear,10,2012-11-16 08:15:00
2:35 AM,37.4,23.0,56,30.08,10.0,Calm,Calm,-,N/A,,Clear,0,2012-11-16 08:35:00
2:55 AM,35.6,23.0,60,30.08,10.0,SSW,4.6,-,N/A,,Clear,210,2012-11-16 08:55:00
3:15 AM,35.6,23.0,60,30.07,10.0,SW,4.6,-,N/A,,Clear,220,2012-11-16 09:15:00
3:35 AM,33.8,23.0,65,30.06,10.0,Calm,Calm,-,N/A,,Clear,0,2012-11-16 09:35:00
3:55 AM,32.0,23.0,69,30.05,10.0,SW,8.1,-,N/A,,Clear,230,2012-11-16 09:55:00
4:15 AM,32.0,23.0,69,30.05,10.0,SW,4.6,-,N/A,,Clear,230,2012-11-16 10:15:00
4:35 AM,28.4,21.2,74,30.04,10.0,SW,3.5,-,N/A,,Clear,230,2012-11-16 10:35:00
4:55 AM,28.4,23.0,80,30.04,10.0,Calm,Calm,-,N/A,,Clear,0,2012-11-16 10:55:00
5:15 AM,28.4,23.0,80,30.04,10.0,SSE,3.5,-,N/A,,Clear,160,2012-11-16 11:15:00
5:35 AM,32.0,23.0,69,30.04,10.0,Calm,Calm,-,N/A,,Clear,0,2012-11-16 11:35:00
5:55 AM,30.2,23.0,75,30.03,10.0,East,3.5,-,N/A,,Clear,100,2012-11-16 11:55:00
6:15 AM,32.0,23.0,69,30.02,10.0,Calm,Calm,-,N/A,,Clear,0,2012-11-16 12:15:00
6:35 AM,26.6,19.4,74,30.03,10.0,SSE,3.5,-,N/A,,Clear,150,2012-11-16 12:35:00
6:55 AM,28.4,19.4,69,30.03,10.0,South,3.5,-,N/A,,Clear,180,2012-11-16 12:55:00
7:15 AM,30.2,19.4,64,30.03,10.0,SSE,4.6,-,N/A,,Clear,150,2012-11-16 13:15:00
7:35 AM,30.2,19.4,64,30.03,10.0,SSE,4.6,-,N/A,,Clear,160,2012-11-16 13:35:00
7:55 AM,32.0,19.4,60,30.03,10.0,SE,5.8,-,N/A,,Clear,140,2012-11-16 13:55:00
8:15 AM,39.2,19.4,45,30.03,10.0,Calm,Calm,-,N/A,,Clear,0,2012-11-16 14:15:00
8:35 AM,35.6,19.4,52,30.03,10.0,Calm,Calm,-,N/A,,Clear,0,2012-11-16 14:35:00
8:55 AM,39.2,17.6,42,30.04,10.0,NW,3.5,-,N/A,,Clear,310,2012-11-16 14:55:00
9:15 AM,41.0,24.8,53,30.03,10.0,SSE,6.9,-,N/A,,Clear,150,2012-11-16 15:15:00
9:35 AM,42.8,23.0,46,30.03,10.0,East,3.5,-,N/A,,Clear,90,2012-11-16 15:35:00
9:55 AM,44.6,23.0,43,30.02,10.0,Calm,Calm,-,N/A,,Clear,0,2012-11-16 15:55:00
10:15 AM,46.4,24.8,43,30.02,10.0,Calm,Calm,-,N/A,,Clear,0,2012-11-16 16:15:00
10:35 AM,50.0,19.4,30,30.02,10.0,NNW,3.5,-,N/A,,Clear,340,2012-11-16 16:35:00
10:55 AM,50.0,21.2,32,30.01,10.0,ENE,3.5,-,N/A,,Clear,60,2012-11-16 16:55:00
11:15 AM,53.6,23.0,30,30.01,10.0,NNE,4.6,-,N/A,,Clear,30,2012-11-16 17:15:00
11:35 AM,53.6,21.2,28,30.01,10.0,NE,3.5,-,N/A,,Clear,50,2012-11-16 17:35:00
11:55 AM,53.6,23.0,30,30.00,10.0,NE,8.1,-,N/A,,Clear,50,2012-11-16 17:55:00
12:15 PM,53.6,19.4,26,30.01,10.0,NE,3.5,-,N/A,,Clear,50,2012-11-16 18:15:00
12:35 PM,55.4,23.0,29,30.00,10.0,NE,4.6,-,N/A,,Clear,40,2012-11-16 18:35:00
12:55 PM,55.4,23.0,29,29.99,10.0,SE,3.5,-,N/A,,Clear,130,2012-11-16 18:55:00
1:15 PM,53.6,23.0,30,29.99,10.0,NE,5.8,-,N/A,,Clear,40,2012-11-16 19:15:00
1:55 PM,55.4,23.0,29,29.98,10.0,NE,4.6,-,N/A,,Clear,40,2012-11-16 19:55:00
2:15 PM,57.2,21.2,25,29.98,10.0,Calm,Calm,-,N/A,,Clear,0,2012-11-16 20:15:00
2:35 PM,57.2,21.2,25,29.97,10.0,Calm,Calm,-,N/A,,Clear,0,2012-11-16 20:35:00
2:55 PM,55.4,24.8,31,29.97,10.0,ENE,3.5,-,N/A,,Clear,60,2012-11-16 20:55:00
3:15 PM,57.2,24.8,29,29.97,10.0,NE,5.8,-,N/A,,Clear,50,2012-11-16 21:15:00
3:55 PM,55.4,26.6,33,29.97,10.0,SE,5.8,-,N/A,,Clear,140,2012-11-16 21:55:00
4:15 PM,53.6,26.6,35,29.98,10.0,SSE,4.6,-,N/A,,Clear,150,2012-11-16 22:15:00
4:35 PM,51.8,26.6,38,29.98,10.0,East,4.6,-,N/A,,Clear,100,2012-11-16 22:35:00
4:55 PM,50.0,26.6,40,29.98,10.0,SE,4.6,-,N/A,,Clear,130,2012-11-16 22:55:00
5:15 PM,46.4,26.6,46,29.98,10.0,SSW,3.5,-,N/A,,Clear,200,2012-11-16 23:15:00
5:35 PM,42.8,24.8,49,29.97,10.0,SSW,4.6,-,N/A,,Clear,200,2012-11-16 23:35:00
5:55 PM,41.0,24.8,53,29.98,10.0,SSW,3.5,-,N/A,,Clear,210,2012-11-16 23:55:00
6:15 PM,41.0,24.8,53,29.97,10.0,SSW,8.1,-,N/A,,Scattered Clouds,210,2012-11-17 00:15:00
6:35 PM,44.6,23.0,43,29.97,10.0,SSW,8.1,-,N/A,,Partly Cloudy,210,2012-11-17 00:35:00
6:55 PM,44.6,23.0,43,29.98,10.0,SSW,3.5,-,N/A,,Scattered Clouds,210,2012-11-17 00:55:00
7:15 PM,44.6,23.0,43,29.97,10.0,SW,3.5,-,N/A,,Mostly Cloudy,230,2012-11-17 01:15:00
7:35 PM,44.6,23.0,43,29.97,10.0,SSE,4.6,-,N/A,,Mostly Cloudy,150,2012-11-17 01:35:00
7:55 PM,42.8,23.0,46,29.98,10.0,South,4.6,-,N/A,,Mostly Cloudy,180,2012-11-17 01:55:00
8:15 PM,44.6,23.0,43,29.97,10.0,Calm,Calm,-,N/A,,Mostly Cloudy,0,2012-11-17 02:15:00
8:35 PM,44.6,23.0,43,29.97,10.0,Calm,Calm,-,N/A,,Overcast,0,2012-11-17 02:35:00
8:55 PM,46.4,23.0,40,29.96,10.0,ESE,4.6,-,N/A,,Overcast,110,2012-11-17 02:55:00
9:15 PM,42.8,23.0,46,29.96,10.0,SSW,4.6,-,N/A,,Scattered Clouds,210,2012-11-17 03:15:00
9:35 PM,41.0,23.0,49,29.97,10.0,SSW,4.6,-,N/A,,Partly Cloudy,200,2012-11-17 03:35:00
9:55 PM,41.0,23.0,49,29.97,10.0,SW,4.6,-,N/A,,Partly Cloudy,230,2012-11-17 03:55:00
10:15 PM,41.0,23.0,49,29.97,10.0,SSE,4.6,-,N/A,,Clear,160,2012-11-17 04:15:00
10:35 PM,37.4,23.0,56,29.97,10.0,Calm,Calm,-,N/A,,Clear,0,2012-11-17 04:35:00
10:55 PM,39.2,23.0,52,29.96,10.0,South,6.9,-,N/A,,Clear,190,2012-11-17 04:55:00
11:15 PM,41.0,23.0,49,29.96,10.0,SW,4.6,-,N/A,,Scattered Clouds,230,2012-11-17 05:15:00
11:35 PM,44.6,23.0,43,29.96,10.0,Calm,Calm,-,N/A,,Mostly Cloudy,0,2012-11-17 05:35:00
11:55 PM,44.6,23.0,43,29.96,10.0,SW,4.6,-,N/A,,Partly Cloudy,220,2012-11-17 05:55:00